| time (UTC) | temp F | wind direction | speed knots | gust knots | rain 1hr in | rain 24hr in | rain mn in | humidity % | barometer mb |
| 20260503050053 | 0 | 0.0 | 0.0 | 0.00 | 0.28 | 0.13 | 1010.3 | ||
| 20260503044609 | 0 | 0.0 | 0.0 | 0.00 | 0.28 | 0.13 | 1010.3 | ||
| 20260503043057 | 0 | 0.0 | 0.0 | 0.00 | 0.28 | 0.13 | 1010.5 | ||
| 20260503041548 | 0 | 0.0 | 0.0 | 0.00 | 0.28 | 0.13 | 1010.4 | ||
| 20260503034509 | 0 | 0.0 | 0.0 | 0.00 | 0.28 | 0.13 | 1010.6 | ||
| 20260503033035 | 0 | 0.0 | 0.0 | 0.00 | 0.28 | 0.13 | 1010.6 | ||
| 20260503031534 | 0 | 0.0 | 0.0 | 0.00 | 0.28 | 0.13 | 1010.7 | ||
| 20260503030054 | 0 | 0.0 | 0.0 | 0.00 | 0.28 | 0.13 | 1010.7 | ||
| 20260503024535 | 0 | 0.0 | 0.0 | 0.01 | 0.28 | 0.13 | 1010.6 | ||
| 20260503023041 | 0 | 0.0 | 0.0 | 0.01 | 0.28 | 0.13 | 1010.9 | ||
| 20260503021531 | 0 | 27 | 0.9 | 2.6 | 0.02 | 0.28 | 0.13 | 94 | 1011.1 |
| 20260503014547 | 52 | 8 | 0.0 | 1.7 | 0.02 | 0.28 | 0.12 | 94 | 1011.4 |
| 20260503011529 | 52 | 356 | 0.0 | 0.9 | 0.04 | 0.27 | 0.11 | 94 | 1011.6 |
| 20260503010019 | 52 | 359 | 0.0 | 0.0 | 0.04 | 0.26 | 0.10 | 94 | 1011.7 |
| 20260503004516 | 51 | 359 | 0.0 | 0.0 | 0.05 | 0.25 | 0.09 | 94 | 1011.8 |
| 20260503003010 | 51 | 359 | 0.0 | 0.0 | 0.05 | 0.24 | 0.09 | 94 | 1011.9 |
| 20260503001520 | 51 | 359 | 0.0 | 0.0 | 0.05 | 0.23 | 0.07 | 94 | 1012.0 |
| 20260503000031 | 51 | 359 | 0.0 | 0.0 | 0.06 | 0.22 | 0.06 | 94 | 1012.2 |
| 20260502234523 | 51 | 359 | 0.0 | 0.9 | 0.07 | 0.20 | 0.05 | 94 | 1012.3 |
| 20260502233029 | 51 | 6 | 0.0 | 0.9 | 0.08 | 0.20 | 0.04 | 93 | 1012.4 |
| 20260502231526 | 51 | 8 | 0.0 | 1.7 | 0.09 | 0.18 | 0.02 | 93 | 1012.5 |
| 20260502230033 | 51 | 8 | 0.0 | 1.7 | 0.08 | 0.16 | 0.16 | 93 | 1012.5 |
| 20260502224538 | 52 | 7 | 0.0 | 1.7 | 0.07 | 0.13 | 0.13 | 93 | 1012.5 |
| 20260502223035 | 52 | 321 | 0.0 | 1.7 | 0.06 | 0.12 | 0.12 | 92 | 1012.5 |
| 20260502221539 | 52 | 346 | 0.0 | 1.7 | 0.06 | 0.09 | 0.09 | 92 | 1012.5 |
| 20260502220044 | 52 | 318 | 0.0 | 0.9 | 0.05 | 0.08 | 0.08 | 91 | 1012.6 |
| 20260502214555 | 52 | 221 | 0.0 | 0.9 | 0.04 | 0.06 | 0.06 | 91 | 1012.7 |
| 20260502213041 | 52 | 207 | 0.0 | 0.0 | 0.04 | 0.06 | 0.06 | 91 | 1012.9 |
| 20260502211540 | 52 | 207 | 0.0 | 0.0 | 0.02 | 0.04 | 0.04 | 90 | 1013.0 |
| 20260502210042 | 52 | 207 | 0.0 | 0.9 | 0.02 | 0.03 | 0.03 | 90 | 1012.9 |
| 20260502204554 | 53 | 184 | 0.0 | 0.0 | 0.02 | 0.02 | 0.02 | 90 | 1013.1 |
| 20260502203110 | 53 | 184 | 0.0 | 0.9 | 0.01 | 0.02 | 0.02 | 89 | 1013.2 |
| 20260502201556 | 53 | 30 | 0.0 | 0.9 | 0.01 | 0.02 | 0.02 | 88 | 1013.2 |
| 20260502200004 | 53 | 35 | 0.0 | 0.9 | 0.02 | 0.02 | 0.02 | 88 | 1013.2 |
| 20260502194556 | 53 | 7 | 0.0 | 0.9 | 0.01 | 0.01 | 0.01 | 87 | 1013.3 |
| 20260502193046 | 54 | 68 | 0.0 | 1.7 | 0.01 | 0.01 | 0.01 | 87 | 1013.2 |
| 20260502191556 | 54 | 4 | 0.0 | 1.7 | 0.01 | 0.01 | 0.01 | 87 | 1013.2 |
| 20260502190054 | 54 | 31 | 0.0 | 1.7 | 0.00 | 0.00 | 0.00 | 86 | 1013.2 |
| 20260502184602 | 54 | 352 | 0.9 | 3.5 | 0.00 | 0.00 | 0.00 | 84 | 1013.1 |
| 20260502183101 | 55 | 30 | 0.9 | 3.5 | 0.00 | 0.00 | 0.00 | 81 | 1013.1 |
| 20260502181614 | 55 | 21 | 0.9 | 4.3 | 0.00 | 0.00 | 0.00 | 79 | 1013.2 |
| 20260502163041 | 56 | 41 | 2.6 | 7.8 | 0.00 | 0.00 | 0.00 | 75 | 1013.4 |
| 20260502161545 | 57 | 71 | 1.7 | 7.0 | 0.00 | 0.00 | 0.00 | 75 | 1013.6 |
| 20260502151600 | 57 | 57 | 1.7 | 7.8 | 0.00 | 0.00 | 0.00 | 76 | 1014.2 |
| 20260502123048 | 59 | 10 | 2.6 | 6.1 | 0.00 | 0.00 | 0.00 | 74 | 1015.9 |
| 20260502121542 | 58 | 51 | 2.6 | 6.1 | 0.00 | 0.00 | 0.00 | 75 | 1016.2 |
| 20260502114539 | 59 | 30 | 0.9 | 7.0 | 0.00 | 0.05 | 0.00 | 76 | 1016.6 |
| 20260502113040 | 59 | 16 | 2.6 | 5.2 | 0.00 | 0.05 | 0.00 | 74 | 1016.6 |
| 20260502111551 | 58 | 352 | 2.6 | 4.3 | 0.00 | 0.05 | 0.00 | 76 | 1016.7 |
| 20260502110100 | 58 | 34 | 1.7 | 4.3 | 0.00 | 0.05 | 0.00 | 76 | 1016.8 |
| 20260502104507 | 58 | 56 | 2.6 | 6.1 | 0.00 | 0.05 | 0.00 | 76 | 1016.8 |
| 20260502103018 | 57 | 27 | 0.9 | 6.1 | 0.00 | 0.05 | 0.00 | 77 | 1016.7 |
| 20260502101504 | 57 | 85 | 0.9 | 3.5 | 0.00 | 0.05 | 0.00 | 78 | 1016.8 |
| 20260502100104 | 56 | 65 | 1.7 | 4.3 | 0.00 | 0.05 | 0.00 | 78 | 1017.2 |
| 20260502091510 | 57 | 275 | 1.7 | 3.5 | 0.00 | 0.05 | 0.00 | 75 | 1017.4 |
| 20260502080106 | 55 | 224 | 0.9 | 4.3 | 0.00 | 0.05 | 0.00 | 80 | 1017.5 |
| 20260502071507 | 53 | 106 | 1.7 | 3.5 | 0.00 | 0.05 | 0.00 | 82 | 1017.6 |
| 20260502070002 | 54 | 200 | 0.0 | 2.6 | 0.00 | 0.05 | 0.00 | 82 | 1017.7 |
| 20260502064534 | 54 | 150 | 0.9 | 2.6 | 0.00 | 0.05 | 0.00 | 81 | 1017.5 |
| 20260502063006 | 53 | 135 | 0.0 | 1.7 | 0.00 | 0.05 | 0.00 | 85 | 1017.4 |
| 20260502061502 | 51 | 108 | 0.9 | 1.7 | 0.00 | 0.05 | 0.00 | 87 | 1017.3 |
| 20260502060101 | 49 | 117 | 0.9 | 2.6 | 0.00 | 0.05 | 0.00 | 87 | 1017.4 |
| 20260502054512 | 48 | 102 | 0.9 | 2.6 | 0.00 | 0.05 | 0.00 | 89 | 1017.4 |
| 20260502053017 | 47 | 103 | 0.9 | 2.6 | 0.00 | 0.05 | 0.00 | 89 | 1017.5 |
| 20260502051512 | 0 | 0.0 | 0.0 | 0.00 | 0.05 | 0.00 | 1017.5 |